www.pogodaiklimat.ru

Погода и климат >> Архив погоды >> Австралия >> Квинсленд >> Сент-Лоренс


ПОГОДА в Сент-Лоренсе

  • Прогноз погоды в Сент-Лоренсе
  • Монитор погоды в Сент-Лоренсе

АРХИВ ПОГОДЫ в Сент-Лоренсе

Время (UTC), дата Ветер
(напр.,м/с)
 
Видим.   Явления Облачность Т
(С)
Тd
(С)
f
(%)
Тe
(С)
Тes
(С)
Комфортность P
(гПа)
Po
(гПа)
Тmin
(С)
Tmax
(С)
R
(мм)
R24
(мм)
S
(см)
20 9.01 ЮВ 1 н/о н/о +23.6 +21.9 90 +30 +30 очень
душно
1011.0 1009.9
23 9.01 В 2 н/о н/о +25.3 +22.8 86 +33 +33 очень
душно
1012.0 1010.9
02 10.01 В 3 н/о туман местами н/о +24.5 +22.6 89 +32 +32 очень
душно
1012.2 1011.1 +22.7
05 10.01 СВ 3 н/о туман местами н/о +24.1 +22.9 93 +32 +32 очень
душно
1011.5 1010.4
08 10.01 СВ 4 н/о {туман} н/о +25.4 +21.9 81 +33 +33 очень
душно
1011.8 1010.7
11 10.01 ЮВ 2 н/о {туман} н/о +24.6 +19.7 74 +30 +30 очень
душно
1013.1 1012.0
14 10.01 штиль 0 н/о н/о +23.6 +21.1 86 +30 +30 очень
душно
1013.2 1012.1 +26.1
17 10.01 штиль 0 н/о н/о +23.1 +21.4 90 +31 +31 очень
душно
1012.0 1010.9
20 10.01 Ю 2 н/о н/о +23.1 +21.0 88 +31 +31 очень
душно
1014.1 1013.0
23 10.01 В 3 н/о н/о +27.8 +20.9 66 +35 +35 очень
душно
1014.8 1013.7
02 11.01 В 3 н/о н/о +27.8 +20.9 66 +35 +35 очень
душно
1014.4 1013.3 +22.6
05 11.01 штиль 0 н/о в посл. час дождь {туман} н/о +25.1 +21.6 81 +32 +32 очень
душно
1013.1 1012.0
08 11.01 штиль 0 н/о {туман} н/о +25.7 +22.2 81 +33 +33 очень
душно
1012.7 1011.6
11 11.01 В 2 н/о {туман} н/о +24.7 +20.2 76 +30 +30 очень
душно
1014.7 1013.6
14 11.01 штиль 0 н/о н/о +22.6 +19.8 84 +29 +29 очень
душно
1015.0 1013.9 +29.4
17 11.01 Ю 2 н/о н/о +22.2 +19.7 86 +28 +28 душно 1013.7 1012.6
20 11.01 Ю 2 н/о н/о +21.9 +19.8 88 +28 +28 душно 1014.9 1013.8
23 11.01 ЮВ 3 н/о н/о +26.9 +20.7 69 +34 +34 очень
душно
1015.5 1014.4
02 12.01 В 3 н/о {туман} н/о +29.6 +18.4 51 +34 +34 очень
душно
1014.1 1013.0 +21.6
05 12.01 С 6 н/о {туман} н/о +30.1 +19.5 53 +36 +36 очень
душно
1012.2 1011.1
08 12.01 СВ 4 н/о н/о +28.8 +19.7 58 +35 +35 очень
душно
1012.2 1011.1
11 12.01 В 3 н/о н/о +25.7 +20.0 71 +32 +32 очень
душно
1013.6 1012.5
14 12.01 штиль 0 н/о н/о +22.9 +19.3 80 +29 +29 очень
душно
1013.6 1012.5 +30.6
17 12.01 штиль 0 н/о н/о +22.0 +19.9 88 +28 +28 душно 1011.9 1010.8
20 12.01 Ю 2 н/о н/о +22.1 +20.6 91 +28 +28 душно 1013.1 1012.0
23 12.01 Ю 4 н/о н/о +26.7 +20.1 67 +33 +33 очень
душно
1013.7 1012.6
02 13.01 В 4 н/о н/о +30.3 +20.2 55 +37 +37 очень
душно
1012.1 1011.0 +21.5
05 13.01 В 5 н/о н/о +30.1 +20.9 58 +37 +37 очень
душно
1010.2 1009.1
08 13.01 В 5 н/о н/о +28.2 +19.7 60 +34 +34 очень
душно
1011.6 1010.5
11 13.01 В 3 н/о н/о +26.3 +20.6 71 +33 +33 очень
душно
1013.6 1012.5
14 13.01 Ю 2 н/о н/о +24.8 +21.3 81 +31 +31 очень
душно
1013.4 1012.3 +32.0
17 13.01 Ю 2 н/о н/о +22.8 +20.5 87 +30 +30 очень
душно
1011.8 1010.7
20 13.01 Ю 1 н/о н/о +21.9 +19.5 86 +27 +27 душно 1013.0 1011.9
23 13.01 ЮВ 4 н/о н/о +26.9 +19.5 64 +33 +33 очень
душно
1013.8 1012.7
02 14.01 В 4 н/о н/о +29.8 +19.2 53 +35 +35 очень
душно
1012.3 1011.2 +22.0
05 14.01 В 4 н/о н/о +30.7 +18.8 49 +36 +36 очень
душно
1010.9 1009.8
08 14.01 В 3 н/о н/о +29.9 +17.7 48 +34 +34 очень
душно
1011.2 1010.1
11 14.01 В 3 н/о н/о +25.9 +21.1 75 +33 +33 очень
душно
1013.6 1012.5
14 14.01 штиль 0 н/о н/о +24.2 +21.1 83 +31 +31 очень
душно
1013.1 1012.0 +31.9
17 14.01 ЮВ 2 н/о н/о +24.6 +20.9 80 +31 +31 очень
душно
1012.0 1010.9
20 14.01 штиль 0 н/о н/о +22.3 +20.6 90 +29 +29 очень
душно
1014.2 1013.1
23 14.01 ЮВ 4 н/о н/о +28.4 +20.4 62 +35 +35 очень
душно
1014.9 1013.8
02 15.01 В 3 н/о н/о +30.8 +18.8 49 +36 +36 очень
душно
1013.1 1012.0 +22.3
05 15.01 СВ 5 н/о н/о +30.8 +19.5 51 +37 +37 очень
душно
1010.7 1009.6
08 15.01 СВ 5 н/о н/о +28.6 +20.1 60 +35 +35 очень
душно
1011.3 1010.2
11 15.01 В 4 н/о н/о +25.9 +19.8 69 +32 +32 очень
душно
1013.0 1011.9
14 15.01 ЮВ 2 н/о н/о +24.1 +20.6 81 +30 +30 очень
душно
1012.7 1011.6 +32.0
17 15.01 Ю 3 н/о н/о +23.1 +20.8 87 +31 +31 очень
душно
1011.4 1010.3
20 15.01 Ю 3 н/о н/о +22.6 +20.1 86 +29 +29 очень
душно
1012.4 1011.3
23 15.01 ЮВ 1 н/о н/о +27.1 +20.2 66 +33 +33 очень
душно
1013.4 1012.3
02 16.01 СВ 4 н/о н/о +30.5 +18.9 50 +36 +36 очень
душно
1011.9 1010.8 +22.3
05 16.01 СВ 5 н/о н/о +31.4 +18.4 46 +36 +36 очень
душно
1009.4 1008.3
08 16.01 С 6 н/о н/о +27.8 +20.4 64 +34 +34 очень
душно
1010.2 1009.1
11 16.01 СВ 4 н/о н/о +26.1 +21.3 75 +33 +33 очень
душно
1012.0 1010.9
14 16.01 В 2 н/о н/о +25.3 +21.2 78 +32 +32 очень
душно
1012.0 1010.9 +32.1
17 16.01 В 2 н/о н/о +24.0 +20.5 81 +30 +30 очень
душно
1010.9 1009.8

 

Местоположение метеостанции Сент-Лоренс (Квинсленд, Австралия): широта -22.35 долгота 149.52 высота над уровнем моря 10 м.

В архиве по умолчанию представлена погода в Сент-Лоренсе за последнюю неделю. Архивные данные за месяц целиком и за предыдущие месяцы, начиная с января 2011 года, Вы можете получить, выбрав интересующий диапазон дат из раскрывающегося списка и нажав кнопку "Ввод!".


*Определитесь, кто Вы:
робот инопланетянин человек

Внимание! Время в таблицах - всемирное. Для получения местного времени необходимо прибавить поправку, которая равна 10 ч.

Смотрите также архив погоды в соседних городах и на ближайших метеорологических станциях:

Погода в Уильямсоне (Квинсленд, Австралия) (69 км)
Погода на Острове Мидл (Квинсленд, Австралия) (108 км)
Погода в Сэмюэл Хилл (Квинсленд, Австралия) (124 км)
Погода в Маккае (Квинсленд, Австралия) (136 км)
Погода в Маккае (Квинсленд, Австралия) (142 км)
Погода в Рокхемптоне (Квинсленд, Австралия) (151 км)
Погода в Йеппуне (Квинсленд, Австралия) (153 км)
Погода в Эмералде (Квинсленд, Австралия) (192 км)
Погода в Клермоне (Квинсленд, Австралия) (201 км)
Погода в Крил Риф (Квинсленд, Австралия) (221 км)

Пояснения к столбцам:

Ветер - указаны скорость ветра в м/с - средняя за 10 мин, порывы в срок и между сроками (в фигурных скобках) и направление, откуда дует ветер: С - северный, СВ - северо-восточный, В - восточный, ЮВ - юго-восточный, Ю - южный, ЮЗ - юго-западный, З - западный, СЗ - северо-западный.
Видимость - горизонтальная дальность видимости в метрах или километрах. При видимости от 1 до 10 км при отсутствии осадков обычно наблюдается дымка, при ухудшении видимости до 1 км и менее - туман. В сухую погоду видимость может ухудшаться дымом, пылью или мглою.
Явления - указаны атмосферные явления, наблюдавшиеся в срок или в последний час перед сроком; фигурными скобками обозначены явления, наблюдавшиеся между сроками (за 1-3 часа до срока); квадратными скобками обозначены град или гололедные отложения с указанием их диаметра в мм.
Облачность - указаны через наклонную черту общая и нижняя облачность в баллах и высота нижней границы облаков в метрах; квадратными скобками обозначены формы облаков: Ci - перистые, Cs - перисто-слоистые, Cc - перисто-кучевые, Ac - высококучевые, As - высокослоистые, Sc - слоисто-кучевые, Ns - слоисто-дождевые, Cu - кучевые, Cb - кучево-дождевые. Подробнее классификацию облаков см. в Атласе облаков (PDF).
T - Температура воздуха - температура, измеренная на высоте 2 м над землей.
Td - Температура точки росы - температура, при понижении до которой содержащийся в воздухе водяной пар достигнет насыщения.
f - Относительная влажность воздуха - влажноcть воздуха, измеренная на высоте 2 м над землей.
Te - Эффективная температура - температура, которую ощущает одетый по сезону человек в тени. Характеристика душности погоды. При расчете учитывается влияние влажности воздуха и скорости ветра на теплоощущения человека.
Tes - Эффективная температура на солнце - температура, которую ощущает человек, с поправкой на солнечный нагрев. Характеристика знойности погоды. Зависит от высоты солнца над горизонтом, облачности и скорости ветра. Ночью, в пасмурную погоду, а также при ветре 12 м/с и более поправка равна нулю.
P - Атмосферное давление - приведенное к уровню моря атмосферное давление.
Po - Атмосферное давление - измеренное на уровне метеостанции атмосферное давление.
Tmin - Минимальная температура - минимум температуры воздуха на высоте 2 м над землей.
Tmax - Максимальная температура - максимум температуры воздуха на высоте 2 м над землей.
R - Количество осадков - Количество выпавших осадков за период времени, мм. При наведении курсора мыши на число - период времени, за который выпало указанное количество осадков.
R24 - Количество осадков - Количество выпавших осадков за 24 часа, мм.
S - Снежный покров - Высота снежного покрова, см. При наведении курсора мыши на число - состояние снежного покрова и степень покрытия местности в баллах.